Regional Weather Roundup
Issued by NWS Cleveland, OH

Home | Current Version | Previous Version | Graphics & Text | Print | Product List | Glossary On
Versions: 1 2 3 4 5 6 7 8 9 10 11 12 13 14 15 16 17 18 19 20 21 22 23 24 25 26 27 28 29 30 31 32 33 34 35 36 37 38 39 40 41 42 43 44 45 46 47 48 49 50
000
ASUS41 KCLE 251310
RWRCLE
OHIO REGIONAL WEATHER ROUNDUP
NATIONAL WEATHER SERVICE CLEVELAND, OH
900 AM EDT WED MAY 25 2016

NOTE: "FAIR" INDICATES FEW OR NO CLOUDS BELOW 12,000 FEET WITH NO
SIGNIFICANT WEATHER AND/OR OBSTRUCTIONS TO VISIBILITY.

OHZ001>008-015>018-024>027-034-035-043-044-251400-
   NORTHWEST OHIO

CITY           SKY/WX    TMP DP  RH WIND       PRES   REMARKS
DEFIANCE       SUNNY     72  55  55 S5        30.09R
FINDLAY        MOSUNNY   71  51  49 S10       30.10R
TOLEDO EXPRESS SUNNY     69  54  58 SW6       30.08R
TOLEDO EXEC    MOSUNNY   70  53  54 SW8       30.09R
LIMA           PTSUNNY   68  52  56 S9        30.11R
$$

OHZ009>014-019>023-028>033-038-089-251400-
   NORTHEAST OHIO

CITY           SKY/WX    TMP DP  RH WIND       PRES   REMARKS
CLE-HOPKINS    CLOUDY    71  51  49 SW8       30.13S
CLE-LAKEFRONT  CLOUDY    73  51  46 S9        30.10R
CUY CO. ARPT   PTSUNNY   73  52  46 SW12      30.12S
LORAIN-ELYRIA  MOSUNNY   68  52  56 SW6       30.11
ASHTABULA      MOSUNNY   69  52  54 SW5       30.12S
AKRON-CANTON   PTSUNNY   67  53  61 SW8       30.15S
WOOSTER        MOSUNNY   65  53  65 SW7       30.15R
MANSFIELD      CLOUDY    69  51  52 S6        30.14S
YOUNGSTOWN     CLOUDY    68  51  54 SW8       30.14S
$$

OHZ042-051>053-060>062-070>072-077>081-251400-
  SOUTHWEST OHIO

CITY           SKY/WX    TMP DP  RH WIND       PRES   REMARKS
CINC-COVINGTON CLOUDY    68  54  60 S7        30.13R
CINC-LUNKEN    CLOUDY    65  58  78 CALM      30.14R
HAMILTON       MOSUNNY   69  56  62 CALM      30.14R
DAYTON         CLOUDY    68  52  56 S10       30.14R
WRIGHT-PAT AFB NOT AVBL
DAYTON GENERAL CLOUDY    69  53  56 S8        30.14R
WILMINGTON     SUNNY     71  53  52 S10       30.14R
$$

OHZ036-037-039>041-045>050-054>059-063>069-073>076-082>088-251400-
  CENTRAL AND SOUTHEAST OHIO

CITY           SKY/WX    TMP DP  RH WIND       PRES   REMARKS
COLUMBUS       MOSUNNY   66  51  58 S7        30.15R
OSU AIRPORT    SUNNY     68  54  60 S6        30.14R
BOLTON FIELD   SUNNY     66  55  68 S6        30.15R
RICKENBACK AFB SUNNY     65  54  67 S5        30.15R
NEWARK         SUNNY     67  56  67 CALM      30.15R
MARION         MOSUNNY   68  54  60 S8        30.14R
LANCASTER      SUNNY     67  55  65 SE3       30.15R
ZANESVILLE     SUNNY     67  57  70 S3        30.16R
NEW PHILLY     MOSUNNY   64  54  69 SE5       30.16S
$$




USA.gov is the U.S. government's official web portal to all federal, state and local government web resources and services.